Location: Albert
(44.3172°N, 77.1347°W)
Time: 07:02:08
(UTC+00:00)

ISS - Pass Details

Date: 25 October 2021
Orbit: 417 x 422 km, 51.6° (Epoch: 07 December)

Event Time Altitude Azimuth Distance (km) Brightness Sun altitude
Exits shadow 10:31:45 20° 258° (WSW) 1,040 -2.4 -12.2°
Maximum altitude 10:33:54 59° 333° (NNW) 490 -3.6 -11.8°
Drops below altitude 10° 10:37:13 10° 54° (NE) 1,500 -0.2 -11.3°
Sets 10:39:21 0° 58° (ENE) 2,365 1.0 -10.9°
